contact:dominique.lefevre@mio.osupytheas.fr, maurice.libes@osupytheas.fr, didier.mallarino@osupytheas.fr
Project:EMSO http://www.emso-fr.org/EMSO-France
Depth: 2436.0 m
Title:EMSO Ligure Ouest : Data MII capteur AQUADOPP
Date,Latitude,Longitude,X_East,Y_North,Z_Up,Amplitude_X,Amplitude_Y,Amplitude_Z,Batterie,SoundSpeed,Heading,Pitch,Roll,Pressure,TIS,Speed,Direction
, degrees North, degrees East, m.s-1, m.s-1,m.s-1, 1, 1, 1, Volt, m.s-1, degree, degree, degree, dbar, degree_C, m.s-1, degree
2023-08-29T00:04:02,42.805,6.029,0.016,-0.005,-0.004,104.0,103.0,102.0,13.4,1505.2,354.4,-0.8,1.8,2471.399,13.28,0.016,107.4
2023-08-29T00:07:02,42.805,6.029,0.048,0.0,0.002,104.0,104.0,102.0,13.4,1505.2,327.5,-0.8,1.8,2471.397,13.28,0.048,90.0
2023-08-29T00:10:03,42.805,6.029,0.026,-0.037,0.0,104.0,103.0,102.0,13.4,1505.2,353.0,-0.8,1.8,2471.406,13.29,0.045,144.9
2023-08-29T00:13:03,42.805,6.029,0.027,-0.046,-0.027,104.0,104.0,102.0,13.4,1505.2,348.9,-0.8,1.8,2471.389,13.29,0.053,149.6
2023-08-29T00:16:02,42.805,6.029,0.052,-0.007,-0.007,103.0,104.0,102.0,13.3,1505.2,331.8,-0.7,1.8,2471.396,13.29,0.052,97.7
2023-08-29T00:19:03,42.805,6.029,0.04,-0.033,-0.032,104.0,104.0,102.0,13.4,1505.2,343.0,-0.7,1.8,2471.363,13.29,0.051,129.5
2023-08-29T00:22:02,42.805,6.029,0.032,0.001,-0.004,103.0,103.0,103.0,13.3,1505.2,331.6,-0.7,1.8,2471.345,13.29,0.032,88.2
2023-08-29T00:25:03,42.805,6.029,0.03,-0.037,-0.012,105.0,102.0,102.0,13.3,1505.2,347.8,-0.8,1.8,2471.387,13.29,0.047,141.0
2023-08-29T00:28:02,42.805,6.029,0.025,-0.045,0.017,104.0,103.0,102.0,13.3,1505.2,342.5,-0.8,1.8,2471.348,13.29,0.051,150.9
2023-08-29T00:31:02,42.805,6.029,0.049,-0.021,-0.009,103.0,105.0,103.0,13.4,1505.2,332.5,-0.8,1.8,2471.421,13.29,0.053,113.2
2023-08-29T00:34:03,42.805,6.029,0.031,-0.023,0.0,104.0,103.0,102.0,13.4,1505.2,327.3,-0.8,1.8,2471.392,13.29,0.038,126.6
2023-08-29T00:37:02,42.805,6.029,0.046,-0.033,-0.01,103.0,103.0,103.0,13.3,1505.2,337.5,-0.8,1.8,2471.376,13.29,0.056,125.7
2023-08-29T00:40:02,42.805,6.029,0.039,-0.031,-0.008,104.0,104.0,102.0,13.3,1505.2,346.2,-0.8,1.8,2471.362,13.29,0.049,128.5
2023-08-29T00:43:02,42.805,6.029,0.056,-0.018,0.0,103.0,104.0,102.0,13.4,1505.2,326.8,-0.8,1.8,2471.393,13.29,0.058,107.8
2023-08-29T00:46:02,42.805,6.029,0.053,-0.036,-0.011,104.0,103.0,102.0,13.3,1505.2,349.7,-0.8,1.8,2471.362,13.29,0.064,124.2
2023-08-29T00:49:03,42.805,6.029,0.056,-0.022,-0.02,104.0,103.0,103.0,13.4,1505.2,321.9,-0.8,1.8,2471.339,13.29,0.06,111.4
2023-08-29T00:52:02,42.805,6.029,0.038,-0.046,-0.039,105.0,102.0,102.0,13.4,1505.2,347.4,-0.8,1.8,2471.373,13.29,0.059,140.4
2023-08-29T00:55:03,42.805,6.029,0.023,-0.046,-0.012,103.0,105.0,101.0,13.4,1505.2,349.1,-0.8,1.8,2471.365,13.29,0.051,153.4
2023-08-29T00:58:03,42.805,6.029,0.03,-0.009,-0.017,103.0,103.0,102.0,13.4,1505.2,322.9,-0.8,1.8,2471.368,13.29,0.031,106.7
2023-08-29T01:04:02,42.805,6.029,0.037,-0.046,-0.024,104.0,104.0,104.0,13.3,1505.2,351.7,-0.7,1.8,2471.421,13.28,0.059,141.2
2023-08-29T01:07:02,42.805,6.029,0.055,-0.028,0.015,103.0,104.0,102.0,13.4,1505.2,326.0,-0.8,1.8,2471.41,13.28,0.061,117.0
2023-08-29T01:10:03,42.805,6.029,0.057,-0.005,-0.007,103.0,104.0,102.0,13.4,1505.2,326.3,-0.8,1.8,2471.396,13.29,0.057,95.0
2023-08-29T01:13:03,42.805,6.029,0.038,-0.031,-0.031,104.0,103.0,102.0,13.4,1505.2,339.3,-0.8,1.8,2471.367,13.29,0.049,129.2
2023-08-29T01:16:02,42.805,6.029,0.014,-0.028,-0.019,103.0,103.0,102.0,13.3,1505.2,353.1,-0.7,1.8,2471.41,13.29,0.031,153.4
2023-08-29T01:19:03,42.805,6.029,0.046,-0.047,0.002,104.0,102.0,102.0,13.4,1505.2,333.4,-0.7,1.8,2471.371,13.29,0.065,135.6
2023-08-29T01:22:02,42.805,6.029,0.04,-0.03,-0.025,104.0,103.0,102.0,13.4,1505.2,338.2,-0.8,1.8,2471.351,13.29,0.05,126.9
2023-08-29T01:25:03,42.805,6.029,0.059,-0.011,-0.005,104.0,104.0,102.0,13.4,1505.2,333.4,-0.7,1.8,2471.375,13.29,0.06,100.6
2023-08-29T01:28:03,42.805,6.029,0.026,-0.022,-0.021,105.0,103.0,102.0,13.3,1505.2,341.5,-0.8,1.8,2471.355,13.29,0.034,130.2
2023-08-29T01:31:02,42.805,6.029,0.051,-0.027,-0.004,105.0,104.0,101.0,13.3,1505.2,326.5,-0.7,1.8,2471.396,13.29,0.057,117.9
2023-08-29T01:34:03,42.805,6.029,0.043,-0.025,-0.016,103.0,103.0,103.0,13.4,1505.2,330.8,-0.8,1.8,2471.361,13.29,0.049,120.2
2023-08-29T01:37:02,42.805,6.029,0.039,-0.06,-0.006,103.0,104.0,103.0,13.4,1505.2,349.3,-0.7,1.8,2471.402,13.29,0.071,147.0
2023-08-29T01:40:03,42.805,6.029,0.037,-0.053,0.005,102.0,102.0,103.0,13.3,1505.2,348.4,-0.8,1.8,2471.351,13.29,0.064,145.1
2023-08-29T01:43:03,42.805,6.029,0.049,-0.035,0.012,102.0,104.0,102.0,13.4,1505.2,338.7,-0.7,1.8,2471.402,13.29,0.06,125.5
2023-08-29T01:46:02,42.805,6.029,0.046,-0.047,-0.005,104.0,104.0,102.0,13.4,1505.2,350.7,-0.8,1.8,2471.381,13.29,0.065,135.6
2023-08-29T01:49:03,42.805,6.029,0.035,-0.032,-0.022,104.0,104.0,102.0,13.4,1505.2,332.9,-0.7,1.8,2471.363,13.29,0.047,132.4
2023-08-29T01:52:02,42.805,6.029,0.042,-0.056,-0.011,105.0,103.0,102.0,13.4,1505.2,348.9,-0.7,1.8,2471.37,13.29,0.069,143.1
2023-08-29T01:55:03,42.805,6.029,0.027,-0.057,-0.024,104.0,105.0,102.0,13.4,1505.2,337.8,-0.8,1.8,2471.371,13.29,0.063,154.7
2023-08-29T01:58:03,42.805,6.029,0.041,-0.039,-0.025,104.0,104.0,101.0,13.3,1505.2,345.4,-0.8,1.8,2471.381,13.29,0.056,133.6
2023-08-29T02:04:02,42.805,6.029,0.049,-0.037,-0.016,103.0,104.0,103.0,13.3,1505.2,332.2,-0.8,1.8,2471.419,13.28,0.061,127.1
2023-08-29T02:07:02,42.805,6.029,0.04,-0.032,-0.041,105.0,103.0,102.0,13.4,1505.2,349.9,-0.8,1.8,2471.443,13.28,0.051,128.7
2023-08-29T02:10:03,42.805,6.029,0.043,-0.03,-0.001,104.0,104.0,103.0,13.4,1505.2,342.2,-0.8,1.8,2471.428,13.28,0.052,124.9
2023-08-29T02:13:03,42.805,6.029,0.059,-0.037,-0.036,105.0,103.0,102.0,13.4,1505.2,340.0,-0.8,1.8,2471.409,13.29,0.069,122.1
2023-08-29T02:16:02,42.805,6.029,0.041,-0.024,-0.028,104.0,104.0,103.0,13.4,1505.2,334.9,-0.7,1.8,2471.406,13.29,0.047,120.3
2023-08-29T02:19:03,42.805,6.029,0.025,-0.018,0.01,104.0,103.0,102.0,13.3,1505.2,337.5,-0.8,1.8,2471.452,13.29,0.03,125.8
2023-08-29T02:22:02,42.805,6.029,0.043,-0.045,-0.03,105.0,103.0,102.0,13.4,1505.2,333.8,-0.8,1.8,2471.395,13.29,0.062,136.3
2023-08-29T02:25:03,42.805,6.029,0.033,-0.027,-0.005,103.0,104.0,102.0,13.4,1505.2,333.9,-0.8,1.8,2471.423,13.29,0.042,129.3
2023-08-29T02:28:03,42.805,6.029,0.051,-0.027,-0.011,104.0,103.0,102.0,13.3,1505.2,332.4,-0.7,1.8,2471.434,13.29,0.057,117.9
2023-08-29T02:31:02,42.805,6.029,0.038,-0.045,-0.027,104.0,103.0,102.0,13.4,1505.2,333.0,-0.8,1.8,2471.403,13.29,0.058,139.8
2023-08-29T02:34:03,42.805,6.029,0.038,-0.032,-0.036,104.0,103.0,103.0,13.4,1505.2,330.2,-0.8,1.8,2471.409,13.29,0.049,130.1
2023-08-29T02:37:02,42.805,6.029,0.018,-0.039,-0.009,104.0,104.0,103.0,13.3,1505.2,333.0,-0.8,1.8,2471.422,13.29,0.042,155.2
2023-08-29T02:40:03,42.805,6.029,0.024,-0.024,-0.021,104.0,104.0,102.0,13.4,1505.2,334.4,-0.8,1.8,2471.361,13.29,0.033,135.0
2023-08-29T02:43:03,42.805,6.029,0.056,-0.037,-0.013,104.0,103.0,102.0,13.3,1505.2,336.9,-0.8,1.8,2471.408,13.29,0.067,123.5
2023-08-29T02:46:02,42.805,6.029,0.017,-0.033,-0.023,104.0,103.0,102.0,13.4,1505.2,330.3,-0.8,1.8,2471.393,13.29,0.037,152.7
2023-08-29T02:49:03,42.805,6.029,0.026,-0.027,-0.028,104.0,104.0,102.0,13.4,1505.2,338.2,-0.8,1.8,2471.413,13.29,0.037,136.1
2023-08-29T02:52:02,42.805,6.029,0.052,-0.035,-0.055,104.0,103.0,102.0,13.4,1505.2,335.8,-0.8,1.8,2471.415,13.29,0.062,123.9
2023-08-29T02:55:03,42.805,6.029,0.057,-0.015,-0.029,105.0,104.0,102.0,13.4,1505.2,329.5,-0.8,1.8,2471.426,13.29,0.058,104.7
2023-08-29T02:58:03,42.805,6.029,0.06,-0.039,-0.017,104.0,103.0,102.0,13.4,1505.2,327.3,-0.8,1.8,2471.407,13.29,0.071,123.0
2023-08-29T03:04:02,42.805,6.029,0.034,-0.035,-0.037,104.0,103.0,102.0,13.4,1505.2,342.3,-0.7,1.8,2471.44,13.28,0.048,135.8
2023-08-29T03:07:02,42.805,6.029,0.044,-0.029,-0.034,104.0,103.0,103.0,13.4,1505.2,333.9,-0.8,1.8,2471.455,13.28,0.052,123.4
2023-08-29T03:10:03,42.805,6.029,0.06,-0.045,0.0,104.0,103.0,102.0,13.4,1505.2,333.4,-0.8,1.8,2471.436,13.29,0.074,126.9
2023-08-29T03:13:03,42.805,6.029,0.039,-0.05,-0.049,104.0,103.0,103.0,13.4,1505.2,348.9,-0.8,1.8,2471.429,13.29,0.063,142.0
2023-08-29T03:16:02,42.805,6.029,0.046,-0.046,-0.023,104.0,104.0,102.0,13.4,1505.2,352.0,-0.8,1.8,2471.483,13.29,0.065,135.0
2023-08-29T03:19:03,42.805,6.029,0.033,-0.043,-0.039,103.0,104.0,103.0,13.4,1505.2,352.1,-0.8,1.8,2471.428,13.29,0.054,142.5
2023-08-29T03:22:02,42.805,6.029,0.036,-0.041,-0.008,105.0,103.0,102.0,13.3,1505.2,353.4,-0.7,1.8,2471.464,13.29,0.054,138.7
2023-08-29T03:25:03,42.805,6.029,0.022,-0.039,-0.036,104.0,103.0,103.0,13.4,1505.2,342.3,-0.7,1.8,2471.424,13.29,0.044,150.6
2023-08-29T03:28:03,42.805,6.029,0.015,-0.036,-0.025,106.0,102.0,102.0,13.4,1505.2,351.5,-0.8,1.8,2471.443,13.29,0.039,157.4
2023-08-29T03:31:02,42.805,6.029,0.026,-0.046,-0.013,105.0,103.0,103.0,13.3,1505.2,330.3,-0.8,1.8,2471.47,13.29,0.052,150.5
2023-08-29T03:34:03,42.805,6.029,0.023,-0.044,-0.008,103.0,103.0,103.0,13.4,1505.2,351.4,-0.7,1.8,2471.474,13.29,0.049,152.4
2023-08-29T03:37:02,42.805,6.029,0.032,-0.021,-0.017,103.0,103.0,101.0,13.3,1505.2,341.2,-0.7,1.8,2471.446,13.29,0.038,123.3
2023-08-29T03:40:03,42.805,6.029,0.034,-0.043,-0.024,105.0,102.0,103.0,13.4,1505.2,343.4,-0.7,1.8,2471.426,13.29,0.054,141.7
2023-08-29T03:43:03,42.805,6.029,0.017,-0.055,-0.027,104.0,103.0,102.0,13.4,1505.2,351.7,-0.8,1.8,2471.455,13.29,0.057,162.8
2023-08-29T03:46:03,42.805,6.029,0.011,-0.039,-0.013,104.0,103.0,103.0,13.4,1505.2,331.9,-0.8,1.8,2471.453,13.29,0.04,164.3
2023-08-29T03:49:03,42.805,6.029,0.008,-0.036,-0.018,103.0,104.0,103.0,13.3,1505.2,333.9,-0.8,1.9,2471.463,13.29,0.036,167.5
2023-08-29T03:52:02,42.805,6.029,0.02,-0.029,-0.035,103.0,103.0,103.0,13.4,1505.2,334.6,-0.8,1.8,2471.488,13.29,0.035,145.4
2023-08-29T03:55:03,42.805,6.029,0.005,-0.018,-0.034,103.0,103.0,103.0,13.4,1505.2,329.3,-0.8,1.8,2471.447,13.29,0.018,164.5
2023-08-29T03:58:03,42.805,6.029,0.021,-0.027,-0.014,104.0,104.0,102.0,13.4,1505.2,349.3,-0.8,1.8,2471.421,13.29,0.034,142.1
2023-08-29T04:04:02,42.805,6.029,0.008,-0.03,-0.033,103.0,103.0,102.0,13.4,1505.2,340.9,-0.8,1.8,2471.506,13.28,0.031,165.1
2023-08-29T04:07:02,42.805,6.029,0.04,-0.035,-0.038,104.0,103.0,102.0,13.4,1505.2,332.9,-0.8,1.8,2471.511,13.28,0.053,131.2
2023-08-29T04:10:03,42.805,6.029,0.007,-0.03,-0.017,104.0,103.0,103.0,13.4,1505.2,335.5,-0.7,1.8,2471.481,13.29,0.03,166.9
2023-08-29T04:13:03,42.805,6.029,0.03,-0.024,-0.027,103.0,103.0,102.0,13.4,1505.2,346.5,-0.8,1.8,2471.486,13.29,0.038,128.7
2023-08-29T04:16:02,42.805,6.029,0.0,-0.036,-0.048,104.0,104.0,102.0,13.3,1505.2,345.4,-0.8,1.8,2471.462,13.29,0.036,180.0
2023-08-29T04:19:03,42.805,6.029,0.05,-0.017,-0.011,104.0,103.0,102.0,13.4,1505.2,333.0,-0.8,1.8,2471.495,13.29,0.052,108.8
2023-08-29T04:22:02,42.805,6.029,0.033,-0.019,-0.023,104.0,103.0,102.0,13.4,1505.2,326.0,-0.8,1.8,2471.498,13.29,0.038,119.9
2023-08-29T04:25:03,42.805,6.029,0.018,-0.039,-0.042,104.0,104.0,102.0,13.4,1505.2,345.6,-0.8,1.8,2471.507,13.29,0.042,155.2
2023-08-29T04:28:03,42.805,6.029,0.049,-0.027,-0.017,105.0,102.0,102.0,13.3,1505.2,326.6,-0.7,1.8,2471.488,13.29,0.055,118.9
2023-08-29T04:31:02,42.805,6.029,0.012,-0.029,-0.012,102.0,104.0,103.0,13.3,1505.2,331.5,-0.8,1.8,2471.486,13.29,0.031,157.5
2023-08-29T04:34:03,42.805,6.029,0.032,-0.023,-0.009,103.0,103.0,102.0,13.4,1505.2,332.1,-0.8,1.8,2471.466,13.29,0.039,125.7
2023-08-29T04:37:02,42.805,6.029,0.008,-0.023,-0.017,104.0,104.0,101.0,13.3,1505.2,339.6,-0.8,1.8,2471.474,13.29,0.024,160.8
2023-08-29T04:40:03,42.805,6.029,0.004,-0.05,-0.043,105.0,101.0,102.0,13.3,1505.2,345.9,-0.8,1.8,2471.494,13.29,0.05,175.4
2023-08-29T04:43:03,42.805,6.029,0.02,-0.039,0.0,103.0,104.0,101.0,13.4,1505.2,343.4,-0.7,1.8,2471.455,13.29,0.043,152.9
2023-08-29T04:46:02,42.805,6.029,0.009,-0.038,-0.032,103.0,103.0,103.0,13.4,1505.2,332.5,-0.8,1.8,2471.485,13.29,0.039,166.7
2023-08-29T04:49:03,42.805,6.029,0.004,-0.033,-0.007,103.0,103.0,102.0,13.3,1505.2,327.9,-0.8,1.8,2471.511,13.29,0.033,173.1
2023-08-29T04:52:02,42.805,6.029,0.013,-0.028,-0.038,103.0,103.0,103.0,13.3,1505.2,339.7,-0.8,1.8,2471.502,13.29,0.03,155.1
2023-08-29T04:55:03,42.805,6.029,0.013,-0.026,-0.036,104.0,103.0,103.0,13.4,1505.2,353.2,-0.8,1.8,2471.49,13.29,0.029,153.4
2023-08-29T04:58:03,42.805,6.029,0.002,-0.028,-0.043,105.0,103.0,102.0,13.3,1505.2,346.5,-0.8,1.8,2471.532,13.29,0.028,175.9
2023-08-29T05:04:02,42.805,6.029,0.003,-0.025,-0.027,103.0,103.0,103.0,13.4,1505.2,344.6,-0.8,1.8,2471.566,13.28,0.025,173.2
2023-08-29T05:07:03,42.805,6.029,0.03,-0.026,-0.003,105.0,103.0,102.0,13.4,1505.2,340.2,-0.8,1.8,2471.552,13.28,0.039,130.9
2023-08-29T05:10:03,42.805,6.029,0.006,-0.043,-0.043,103.0,104.0,102.0,13.4,1505.2,330.1,-0.7,1.8,2471.521,13.29,0.043,172.1
2023-08-29T05:13:03,42.805,6.029,0.0,-0.037,-0.014,105.0,103.0,103.0,13.3,1505.2,341.8,-0.7,1.8,2471.521,13.29,0.037,180.0
2023-08-29T05:16:03,42.805,6.029,0.017,-0.026,-0.02,104.0,104.0,101.0,13.4,1505.2,343.7,-0.8,1.8,2471.549,13.29,0.031,146.8
2023-08-29T05:19:03,42.805,6.029,0.026,-0.01,-0.014,104.0,102.0,102.0,13.3,1505.2,331.2,-0.8,1.8,2471.51,13.29,0.027,111.0
2023-08-29T05:22:02,42.805,6.029,0.023,-0.019,-0.019,104.0,103.0,102.0,13.4,1505.2,338.2,-0.7,1.9,2471.497,13.29,0.029,129.6
2023-08-29T05:25:03,42.805,6.029,0.018,-0.02,-0.023,105.0,104.0,101.0,13.4,1505.2,326.0,-0.7,1.8,2471.495,13.29,0.026,138.0
2023-08-29T05:28:03,42.805,6.029,0.012,-0.032,-0.037,104.0,103.0,102.0,13.4,1505.2,331.2,-0.8,1.8,2471.531,13.29,0.034,159.4
2023-08-29T05:31:03,42.805,6.029,0.003,-0.019,-0.002,104.0,103.0,101.0,13.4,1505.2,349.5,-0.8,1.8,2471.541,13.29,0.019,171.0
2023-08-29T05:34:03,42.805,6.029,-0.006,-0.003,0.009,104.0,103.0,102.0,13.3,1505.2,330.2,-0.8,1.8,2471.538,13.29,0.006,243.4
2023-08-29T05:37:02,42.805,6.029,-0.014,-0.003,-0.023,105.0,103.0,102.0,13.3,1505.2,340.8,-0.8,1.8,2471.516,13.29,0.014,257.9
2023-08-29T05:40:03,42.805,6.029,0.004,-0.015,-0.024,103.0,103.0,102.0,13.4,1505.2,329.2,-0.8,1.8,2471.516,13.29,0.015,165.1
2023-08-29T05:43:03,42.805,6.029,0.005,-0.017,-0.029,104.0,102.0,102.0,13.4,1505.2,352.4,-0.8,1.8,2471.529,13.29,0.017,163.6
2023-08-29T05:46:03,42.805,6.029,-0.016,-0.035,-0.054,105.0,102.0,101.0,13.4,1505.2,349.7,-0.7,1.8,2471.498,13.29,0.038,204.6
2023-08-29T05:49:03,42.805,6.029,-0.011,-0.012,-0.021,104.0,104.0,103.0,13.4,1505.2,333.4,-0.8,1.8,2471.522,13.29,0.016,222.5
2023-08-29T05:52:03,42.805,6.029,-0.004,-0.033,-0.041,103.0,102.0,102.0,13.4,1505.2,347.3,-0.7,1.8,2471.475,13.29,0.033,186.9
2023-08-29T05:55:03,42.805,6.029,0.006,-0.004,-0.028,103.0,104.0,102.0,13.3,1505.2,321.9,-0.7,1.8,2471.478,13.29,0.007,123.7
2023-08-29T05:58:03,42.805,6.029,0.03,-0.029,-0.02,103.0,103.0,103.0,13.3,1505.2,324.5,-0.8,1.8,2471.507,13.29,0.041,134.0
2023-08-29T06:04:02,42.805,6.029,0.003,-0.022,-0.034,103.0,103.0,102.0,13.4,1505.2,345.6,-0.8,1.8,2471.559,13.28,0.022,172.2
2023-08-29T06:07:03,42.805,6.029,0.009,0.002,0.015,105.0,102.0,102.0,13.4,1505.2,337.5,-0.8,1.8,2471.526,13.28,0.009,77.5
2023-08-29T06:10:03,42.805,6.029,-0.014,-0.026,-0.04,104.0,102.0,103.0,13.4,1505.2,341.2,-0.8,1.8,2471.544,13.29,0.029,208.3
2023-08-29T06:13:03,42.805,6.029,0.021,-0.038,-0.041,103.0,104.0,102.0,13.4,1505.2,351.5,-0.7,1.8,2471.54,13.29,0.043,151.1
2023-08-29T06:16:03,42.805,6.029,0.014,-0.017,-0.018,102.0,104.0,102.0,13.4,1505.2,321.0,-0.8,1.8,2471.497,13.29,0.022,140.5
2023-08-29T06:19:03,42.805,6.029,0.006,-0.019,-0.034,104.0,104.0,101.0,13.4,1505.2,344.0,-0.8,1.8,2471.534,13.29,0.019,162.5
2023-08-29T06:22:03,42.805,6.029,-0.005,-0.022,-0.022,104.0,103.0,102.0,13.4,1505.2,348.2,-0.7,1.8,2471.493,13.29,0.022,192.8
2023-08-29T06:25:03,42.805,6.029,-0.013,-0.025,-0.001,103.0,104.0,102.0,13.3,1505.2,324.4,-0.7,1.8,2471.472,13.29,0.028,207.5
2023-08-29T06:28:03,42.805,6.029,-0.002,-0.022,-0.037,102.0,102.0,103.0,13.4,1505.2,344.2,-0.8,1.8,2471.477,13.29,0.022,185.2
2023-08-29T06:31:03,42.805,6.029,-0.001,-0.004,-0.02,104.0,103.0,102.0,13.4,1505.2,335.5,-0.8,1.8,2471.505,13.29,0.004,194.0
2023-08-29T06:34:03,42.805,6.029,-0.01,-0.007,-0.029,105.0,103.0,102.0,13.4,1505.2,348.1,-0.7,1.8,2471.514,13.29,0.012,235.0
2023-08-29T06:37:03,42.805,6.029,-0.017,-0.006,-0.028,103.0,103.0,102.0,13.3,1505.2,346.5,-0.8,1.9,2471.497,13.29,0.018,250.6
2023-08-29T06:40:03,42.805,6.029,-0.005,-0.013,-0.01,103.0,105.0,101.0,13.4,1505.2,329.0,-0.8,1.8,2471.516,13.29,0.013,201.0
2023-08-29T06:43:03,42.805,6.029,-0.015,-0.01,-0.034,105.0,103.0,102.0,13.4,1505.2,335.6,-0.8,1.9,2471.503,13.29,0.018,236.3
2023-08-29T06:46:03,42.805,6.029,-0.013,-0.006,-0.042,105.0,103.0,102.0,13.4,1505.2,341.9,-0.8,1.8,2471.499,13.29,0.014,245.2
2023-08-29T06:49:03,42.805,6.029,-0.001,-0.014,-0.014,104.0,103.0,102.0,13.3,1505.2,336.6,-0.8,1.8,2471.518,13.29,0.014,184.1
2023-08-29T06:52:02,42.805,6.029,0.004,-0.012,-0.045,104.0,104.0,101.0,13.3,1505.2,322.7,-0.8,1.8,2471.522,13.29,0.012,161.6
2023-08-29T06:55:03,42.805,6.029,-0.004,-0.001,-0.008,103.0,104.0,102.0,13.4,1505.2,334.2,-0.8,1.8,2471.491,13.29,0.004,256.0
2023-08-29T06:58:03,42.805,6.029,0.01,-0.009,-0.035,104.0,103.0,102.0,13.3,1505.2,344.7,-0.8,1.8,2471.447,13.29,0.013,132.0
2023-08-29T07:04:02,42.805,6.029,-0.011,-0.015,-0.046,104.0,105.0,102.0,13.4,1505.2,333.4,-0.8,1.8,2471.519,13.29,0.018,216.3
2023-08-29T07:07:03,42.805,6.029,-0.011,-0.032,-0.003,104.0,104.0,102.0,13.3,1505.2,345.1,-0.8,1.8,2471.552,13.29,0.033,199.0
2023-08-29T07:10:03,42.805,6.029,0.005,0.003,-0.009,105.0,103.0,101.0,13.3,1505.2,336.9,-0.8,1.8,2471.545,13.29,0.005,59.0
2023-08-29T07:13:03,42.805,6.029,0.022,-0.014,0.019,104.0,104.0,102.0,13.3,1505.2,344.7,-0.8,1.8,2471.486,13.29,0.026,122.5
2023-08-29T07:16:03,42.805,6.029,-0.001,-0.01,-0.016,104.0,103.0,101.0,13.3,1505.2,339.3,-0.8,1.8,2471.494,13.29,0.01,185.7
2023-08-29T07:19:03,42.805,6.029,-0.012,-0.015,-0.05,103.0,103.0,102.0,13.4,1505.2,343.0,-0.8,1.8,2471.491,13.29,0.019,218.7
2023-08-29T07:22:03,42.805,6.029,0.0,0.003,-0.027,104.0,103.0,102.0,13.3,1505.2,349.3,-0.8,1.8,2471.473,13.29,0.003,0.0
2023-08-29T07:25:03,42.805,6.029,0.003,-0.022,-0.027,103.0,103.0,102.0,13.3,1505.2,333.4,-0.8,1.8,2471.455,13.29,0.022,172.2
2023-08-29T07:28:03,42.805,6.029,-0.003,-0.012,-0.012,104.0,104.0,103.0,13.4,1505.2,331.3,-0.7,1.8,2471.489,13.29,0.012,194.0
2023-08-29T07:31:03,42.805,6.029,0.003,-0.001,-0.045,105.0,103.0,102.0,13.3,1505.2,335.4,-0.8,1.8,2471.499,13.29,0.003,108.4
2023-08-29T07:34:03,42.805,6.029,0.01,-0.013,-0.026,103.0,103.0,103.0,13.4,1505.2,323.4,-0.8,1.8,2471.463,13.29,0.016,142.4
2023-08-29T07:37:03,42.805,6.029,-0.003,-0.012,-0.004,104.0,103.0,102.0,13.4,1505.2,340.4,-0.7,1.8,2471.471,13.29,0.012,194.0
2023-08-29T07:40:03,42.805,6.029,-0.004,0.006,-0.026,104.0,103.0,102.0,13.3,1505.2,354.4,-0.7,1.8,2471.515,13.29,0.007,326.3
2023-08-29T07:43:03,42.805,6.029,-0.001,-0.016,0.001,103.0,103.0,102.0,13.3,1505.2,325.4,-0.7,1.8,2471.47,13.29,0.016,183.6
2023-08-29T07:46:03,42.805,6.029,0.0,-0.004,0.003,104.0,104.0,101.0,13.4,1505.2,341.5,-0.7,1.8,2471.502,13.29,0.004,180.0
2023-08-29T07:49:03,42.805,6.029,-0.008,-0.022,-0.019,103.0,104.0,103.0,13.4,1505.2,338.2,-0.8,1.8,2471.489,13.29,0.023,200.0
2023-08-29T07:52:03,42.805,6.029,0.013,-0.003,0.017,104.0,104.0,102.0,13.3,1505.2,341.2,-0.8,1.8,2471.468,13.29,0.013,103.0
2023-08-29T07:55:02,42.805,6.029,0.008,-0.003,-0.037,104.0,104.0,102.0,13.3,1505.2,338.8,-0.8,1.8,2471.47,13.29,0.008,110.6
2023-08-29T07:58:03,42.805,6.029,0.004,0.0,-0.009,104.0,104.0,102.0,13.4,1505.2,343.8,-0.8,1.8,2471.509,13.29,0.004,90.0
2023-08-29T09:04:03,42.805,6.029,0.004,0.005,-0.004,104.0,103.0,101.0,13.3,1505.2,333.0,-0.8,1.8,2471.944,13.28,0.006,38.7
2023-08-29T09:07:03,42.805,6.029,-0.004,0.015,-0.033,104.0,107.0,102.0,13.3,1505.2,332.0,-0.7,1.8,2471.858,13.28,0.015,345.1
2023-08-29T09:10:03,42.805,6.029,-0.012,-0.001,-0.008,103.0,104.0,102.0,13.3,1505.2,338.0,-0.8,1.8,2471.776,13.28,0.012,265.2
2023-08-29T09:13:03,42.805,6.029,0.03,0.01,-0.015,103.0,104.0,102.0,13.4,1505.2,342.6,-0.8,1.8,2471.681,13.28,0.031,71.6
2023-08-29T09:16:03,42.805,6.029,0.02,0.0,-0.011,104.0,104.0,102.0,13.3,1505.2,324.9,-0.7,1.8,2471.609,13.29,0.02,90.0
2023-08-29T09:19:03,42.805,6.029,-0.004,0.007,-0.036,104.0,103.0,103.0,13.3,1505.2,337.1,-0.8,1.8,2471.534,13.29,0.008,330.3
2023-08-29T09:22:03,42.805,6.029,0.0,0.002,-0.009,103.0,104.0,101.0,13.4,1505.2,321.6,-0.8,1.8,2471.489,13.29,0.002,0.0
2023-08-29T09:25:03,42.805,6.029,0.017,0.003,-0.026,104.0,104.0,102.0,13.3,1505.2,346.2,-0.7,1.8,2471.486,13.29,0.017,80.0
2023-08-29T09:28:03,42.805,6.029,0.025,-0.015,0.007,104.0,105.0,102.0,13.4,1505.2,348.2,-0.8,1.8,2471.477,13.29,0.029,121.0
2023-08-29T09:31:03,42.805,6.029,0.016,-0.013,0.005,102.0,103.0,102.0,13.4,1505.2,335.1,-0.8,1.8,2471.482,13.29,0.02,129.1
2023-08-29T09:34:03,42.805,6.029,0.0,0.0,-0.003,103.0,103.0,102.0,13.4,1505.2,346.9,-0.8,1.8,2471.418,13.29,0.0,0.0
2023-08-29T09:37:03,42.805,6.029,-0.007,0.036,-0.013,104.0,105.0,101.0,13.4,1505.2,328.4,-0.8,1.9,2471.454,13.29,0.036,349.0
2023-08-29T09:40:03,42.805,6.029,0.001,0.003,-0.019,103.0,102.0,103.0,13.4,1505.2,329.8,-0.8,1.8,2471.409,13.29,0.003,18.4
2023-08-29T09:43:03,42.805,6.029,0.013,-0.006,-0.028,104.0,103.0,101.0,13.4,1505.2,343.5,-0.8,1.8,2471.392,13.29,0.014,114.8
2023-08-29T09:46:03,42.805,6.029,0.019,-0.011,-0.014,103.0,103.0,102.0,13.4,1505.2,339.7,-0.8,1.8,2471.396,13.29,0.021,120.1
2023-08-29T09:49:03,42.805,6.029,0.008,0.014,-0.025,103.0,104.0,102.0,13.4,1505.2,326.8,-0.7,1.8,2471.365,13.29,0.016,29.7
2023-08-29T09:52:03,42.805,6.029,0.028,-0.003,0.006,104.0,105.0,100.0,13.4,1505.2,326.8,-0.8,1.8,2471.406,13.29,0.028,96.1
2023-08-29T09:55:03,42.805,6.029,0.003,0.007,-0.042,103.0,102.0,103.0,13.3,1505.2,328.6,-0.8,1.8,2471.386,13.29,0.007,23.2
2023-08-29T09:58:03,42.805,6.029,0.0,-0.009,0.02,104.0,104.0,101.0,13.3,1505.2,344.8,-0.7,1.8,2471.409,13.29,0.009,180.0
2023-08-29T10:04:02,42.805,6.029,-0.005,-0.003,-0.013,103.0,103.0,102.0,13.4,1505.2,342.3,-0.7,1.8,2471.435,13.29,0.005,239.0
2023-08-29T10:07:03,42.805,6.029,0.012,0.021,-0.029,103.0,103.0,102.0,13.4,1505.2,343.1,-0.8,1.8,2471.402,13.29,0.024,29.7
2023-08-29T10:10:03,42.805,6.029,0.008,0.028,-0.035,106.0,102.0,102.0,13.4,1505.2,337.9,-0.7,1.8,2471.412,13.29,0.029,15.9
2023-08-29T10:13:03,42.805,6.029,-0.005,-0.002,-0.039,103.0,104.0,102.0,13.3,1505.2,347.9,-0.8,1.8,2471.431,13.29,0.005,248.2
2023-08-29T10:16:03,42.805,6.029,0.012,0.014,0.002,104.0,104.0,102.0,13.3,1505.2,333.9,-0.8,1.8,2471.425,13.29,0.018,40.6
2023-08-29T10:19:03,42.805,6.029,0.007,-0.005,0.015,104.0,104.0,102.0,13.3,1505.2,339.7,-0.7,1.9,2471.356,13.29,0.008,125.5
2023-08-29T10:22:03,42.805,6.029,0.0,0.012,-0.02,104.0,103.0,102.0,13.3,1505.2,338.0,-0.8,1.8,2471.373,13.29,0.012,0.0
2023-08-29T10:25:03,42.805,6.029,0.02,0.007,0.018,103.0,103.0,101.0,13.4,1505.2,325.0,-0.8,1.8,2471.377,13.29,0.021,70.7
2023-08-29T10:28:03,42.805,6.029,0.007,-0.006,-0.024,103.0,103.0,102.0,13.3,1505.2,335.9,-0.8,1.8,2471.399,13.29,0.009,130.6
2023-08-29T10:31:03,42.805,6.029,0.012,-0.021,-0.029,104.0,104.0,102.0,13.4,1505.2,333.4,-0.7,1.8,2471.409,13.29,0.024,150.3
2023-08-29T10:34:03,42.805,6.029,0.004,0.006,0.001,104.0,104.0,102.0,13.4,1505.2,342.3,-0.8,1.8,2471.357,13.29,0.007,33.7
2023-08-29T10:37:03,42.805,6.029,0.017,0.001,-0.016,103.0,104.0,102.0,13.4,1505.2,343.0,-0.8,1.8,2471.418,13.29,0.017,86.6
2023-08-29T10:40:03,42.805,6.029,0.021,-0.002,-0.029,104.0,104.0,101.0,13.4,1505.2,345.9,-0.7,1.8,2471.414,13.29,0.021,95.4
2023-08-29T10:43:03,42.805,6.029,0.026,-0.011,-0.005,104.0,103.0,102.0,13.4,1505.2,352.0,-0.8,1.8,2471.375,13.29,0.028,112.9
2023-08-29T10:46:03,42.805,6.029,0.005,-0.003,0.009,103.0,103.0,102.0,13.3,1505.2,322.7,-0.8,1.8,2471.394,13.29,0.005,121.0
2023-08-29T10:49:03,42.805,6.029,0.025,0.012,-0.021,103.0,103.0,102.0,13.3,1505.2,344.3,-0.8,1.8,2471.363,13.29,0.027,64.4
2023-08-29T10:52:03,42.805,6.029,0.023,-0.001,-0.02,103.0,103.0,102.0,13.4,1505.2,324.5,-0.8,1.8,2471.389,13.29,0.023,92.5
2023-08-29T10:55:03,42.805,6.029,0.022,-0.011,-0.032,103.0,103.0,102.0,13.3,1505.2,343.7,-0.8,1.8,2471.335,13.29,0.024,116.6